CZ-6A DEB, 61475

Orbit data source: Space-Track

CZ-6A DEB, 61475 is space debris in LEO originally from a launch on Tue, 06 Aug 2024 UTC launched from the Taiyaun Space Center, China (TSC). Debris objects in space refer to the collection of defunct objects orbiting the Earth. Examples of debris include non-operational satellites, rocket bodies, and fragments generated from explosions, collisions, or faulty payload assembly.

Loading next visibility...
Identifier
61475, 2024-140AAH
Orbit
LEO
Country
Flag of CNCN / PRC
Related business
Manufacturer
SAST
Mission
Spacecraft
Bus & Motor
Unknown
Mass
Unknown
Launch date (UTC)
2024-08-06 (1 year ago)
Launch vehicle
Unknown
Launch site
Taiyaun Space Center, China (TSC)
Object type
Payload
Rocket body
Debris
Shape & HBR
Unknown
Radar Cross Section
Small (<0.1 m²)

Expand to show TLE details & history
Last TLE update: 3 days ago

TLE from 3 days ago
0 CZ-6A DEB
1 61475U 24140AAH 25259.02331562  .00000348  00000-0  35725-3 0  9999
2 61475  88.3737 285.4559 0436788 147.2059 215.7023 13.38601020 50406
Epoch: 2025-09-16T00:33Z
TLE epoch observation values (Epoch: 2025-09-16T00:33:34.469Z)
Latitude
-0.00005°
Longitude
-78.15729°
Altitude
1,387.876 km
Speed
7.035 km/s
True Right ascension
19h 01m 49s
True Declination
0° 00' 00"
Sunlit
Object was in daylight at epoch
Visualization orbit readout
Latitude
Unknown
Longitude
Unknown
Altitude
Unknown
Speed
Unknown
Apparent Right ascension
Unknown
Apparent Declination
Unknown
Sunlit
N/A
Visualization observer readout
Local Sidereal Time
13:00:26
Azimuth
Unknown
Elevation
Unknown
Doppler factor
Unknown
Orbital elements
Apogee altitude
1,438.701 km
Perigee altitude
784.419 km
Semi-major axis
7,489.697 km
Eccentricity
0.04368
Inclination
88.3737°
RAAN
285.4559°
Arg. of periapsis
147.2059°
True anomaly
212.90669°
Mean anomaly
215.7023°
Eccentric anomaly
214.29229°
Mean motion
3.34847 °/min
Orbital period
107.51 mins
BSTAR
0.00035725
Loading maneuver chart data...
Computing Atmospheric mass density...
Loading historical data...
Loading historical data...
Loading historical data...
Loading historical data...
Loading historical data...
Loading historical data...
Loading historical data...

Documentation

Showing up to 5 results
|